Regional Weather Roundup
Issued by NWS

Home | Current Version | Previous Version | Graphics & Text | Print | Product List | Glossary On
Versions: 1 2 3 4 5 6 7 8 9 10 11 12 13 14 15 16 17 18 19 20 21 22 23 24 25 26 27 28 29 30 31 32 33 34 35 36 37 38 39 40 41 42 43 44 45 46 47 48 49 50
863
ASUS45 KABQ 251801
RWRNM
NEW MEXICO REGIONAL WEATHER ROUNDUP
NATIONAL WEATHER SERVICE ALBUQUERQUE NM
1200 PM MDT TUE JUL 25 2017

NOTE: "FAIR" MEANS FEW OR NO CLOUDS BELOW 12,000 FEET AGL WITH NO
       SIGNIFICANT WEATHER OR OBSTRUCTIONS TO VISION.

      THIS PRODUCT IS RELEASED AS TWO VERSIONS.  ONE VERSION NEAR
      THE TOP OF THE HOUR CONTAINING PRELIMINARY DATA FROM ALBUQUERQUE
      AND OTHER STATIONS.  A FINAL VERSION WITH ADDITIONAL DATA IS
      ISSUED ABOUT 10 MINUTES AFTER THE HOUR.

NMZ501-503-504-510>518-251900-
NORTHWEST PLATEAU/NORTHCENTRAL MOUNTAINS

CITY           SKY/WX    TMP DP  RH WIND       PRES   REMARKS
FARMINGTON     PTSUNNY   77  60  55 VRB5      30.22S
6HR MIN TEMP:  65; 6HR MAX TEMP:  78;

LOS ALAMOS     PTSUNNY   78  54  44 SE6       30.34F
SANTA FE       FAIR      80  58  46 S9        30.28F
6HR MIN TEMP:  62; 6HR MAX TEMP:  81;

TAOS           FAIR      75  54  46 W6        30.33F
ANGEL FIRE     FAIR      69  54  58 W9        30.42F

$$
NMZ402-403-502-505>509-251900-
WESTCENTRAL MOUNTAINS/SOUTHWEST MOUNTAINS

CITY           SKY/WX    TMP DP  RH WIND       PRES   REMARKS
GALLUP         FAIR      74  59  59 SW13G21   30.32S
6HR MIN TEMP:  61; 6HR MAX TEMP:  74;

GRANTS         PTSUNNY   78  53  41 W9        30.32F
SILVER CITY    PTSUNNY   80  57  46 CALM      30.27S

$$
NMZ407-409-411-412-251900-
SOUTHERN DESERTS

CITY           SKY/WX    TMP DP  RH WIND       PRES   REMARKS
DEMING         FAIR      84  63  49 VRB3      30.19F
6HR MIN TEMP:  68; 6HR MAX TEMP:  84;

LAS CRUCES     FAIR      83  63  50 SE7       30.21F
HOLLOMAN AFB   FAIR      91  59  34 SW9       30.18F
ALAMOGORDO     FAIR      84  57  39 S9        30.19F
T OR C         FAIR      85  50  29 S6        30.19F
6HR MIN TEMP:  68; 6HR MAX TEMP:  86;


$$
NMZ519>523-251900-
CENTRAL VALLEYS/CENTRAL HIGHLANDS

CITY           SKY/WX    TMP DP  RH WIND       PRES   REMARKS
ALBUQUERQUE    FAIR      83  56  39 SW7       30.23F
6HR MIN TEMP:  69; 6HR MAX TEMP:  83;

DOUBLE EAGLE   PTSUNNY   84  55  37 VRB7      30.26F
MORIARTY ARPT  HVY RAIN  79  60  52 NW5       30.30S
6HR MIN TEMP:  61; 6HR MAX TEMP:  84; 6HR PCP:  0.04;

CLINES CORNERS FAIR      81  51  35 SW16      30.34F
6HR MIN TEMP:  59; 6HR MAX TEMP:  81;

BELEN          NOT AVBL
SOCORRO        FAIR      83  59  43 SE6       30.20F
6HR MIN TEMP:  66; 6HR MAX TEMP:  83;


$$
NMZ524>526-539-540-251900-
SOUTHCENTRAL MOUNTAINS

CITY           SKY/WX    TMP DP  RH WIND       PRES   REMARKS
RUIDOSO        FAIR      77  54  44 SW13      30.36F

$$
NMZ527>531-251900-
NORTHEAST HIGHLANDS/NORTHEAST PLAINS

CITY           SKY/WX    TMP DP  RH WIND       PRES   REMARKS
LAS VEGAS      FAIR      80  53  39 SW18      30.31S
6HR MIN TEMP:  57; 6HR MAX TEMP:  81;

RATON          FAIR      85  54  34 SE13      30.22F
6HR MIN TEMP:  58; 6HR MAX TEMP:  85;

CLAYTON        FAIR      91  57  31 S16G29    30.14F
6HR MIN TEMP:  65; 6HR MAX TEMP:  92;


$$
NMZ532>537-251900-
EASTCENTRAL PLAINS

CITY           SKY/WX    TMP DP  RH WIND       PRES   REMARKS
SANTA ROSA     MOCLDY    89  55  30 SE12G17   30.14F
TUCUMCARI      FAIR      93  59  31 SW8G21    30.09F
6HR MIN TEMP:  70; 6HR MAX TEMP:  95;

CANNON AFB     FAIR      90  59  35 S12G20    30.16F
6HR MIN TEMP:  67; 6HR MAX TEMP:  91;

CLOVIS AIRPORT FAIR      91  62  37 S15       30.16F

$$
NMZ028-029-538-251900-
SOUTHEAST PLAINS

CITY           SKY/WX    TMP DP  RH WIND       PRES   REMARKS
ROSWELL        FAIR      94  59  31 S12G18    30.09F
6HR MIN TEMP:  73; 6HR MAX TEMP:  94;

ARTESIA        FAIR      93  63  36 S13G24    30.10F
CARLSBAD       FAIR      93  63  36 E6        30.08F
6HR MIN TEMP:  73; 6HR MAX TEMP:  94;

HOBBS          MOSUNNY   90  55  31 S8        30.14F


$$




USA.gov is the U.S. government's official web portal to all federal, state and local government web resources and services.